Simultaneous Nadir Overpasses (SNOs) Predictions

Prediction of SNOs between METOP-C and LANDSAT-8 Satellite Orbit:

Table of predicted SNOs for the next 14.0 days since TLE Epoch: 8/17/2024
Index Date (METOP-C) Time (METOP-C) Lat,Lon (METOP-C) SZA (METOP-C ) Date (LANDSAT-8) Time (LANDSAT-8) Lat,Lon (LANDSAT-8) SZA (LANDSAT-8 ) Distance(km) Time Diff (sec)
1 08/17/2024 18:49:58 -81.08, 116.64 110.05 08/17/2024 18:50:59 -81.08, 116.61 110.03 0.55 61
2 08/17/2024 19:40:37 81.10, -75.40 70.04 08/17/2024 19:40:24 81.11, -75.26 70.06 2.48 13
3 08/20/2024 14:24:19 -81.09,-176.78 109.10 08/20/2024 14:25:16 -81.08,-176.93 109.09 2.60 57
4 08/20/2024 15:14:58 81.11, -8.81 71.00 08/20/2024 15:14:41 81.11, -8.84 70.99 0.59 17
5 08/23/2024 09:58:40 -81.09,-110.42 108.14 08/23/2024 09:59:31 -81.09,-110.35 108.11 1.41 51
6 08/23/2024 10:49:20 81.09, 57.18 71.91 08/23/2024 10:48:57 81.09, 57.33 71.91 2.60 23
7 08/26/2024 05:32:59 -81.09, -43.91 107.14 08/26/2024 05:33:44 -81.08, -44.02 107.14 1.92 45
8 08/26/2024 06:23:38 81.11, 124.08 72.96 08/26/2024 06:23:09 81.11, 123.99 72.93 1.61 29
9 08/29/2024 01:07:19 -81.08, 22.38 106.15 08/29/2024 01:07:56 -81.08, 22.43 106.13 0.84 37



Historial Predications of SNOs between METOP-C and LANDSAT-8
